Location: Houston
(29.7630°N, 95.3630°W)
Time: 13:35:41
(UTC-05:00)

Daily predictions for brighter satellites

Satellite Brightness Start Highest point End
(mag) Time Altitude Azimuth Time Altitude Azimuth Time Altitude Azimuth
CENTAUR R/B 3.0 19:21:38 10° S 19:26:48 34° ESE 19:32:24 10° NE
Gbstr 26 Del rocket 3.0 19:24:48 10° SSW 19:28:45 64° SE 19:33:28 10° NE
DMSP B5D1-3 4.5 19:26:45 10° NNE 19:31:52 78° ESE 19:36:58 10° S
Cosmos 1603 3.7 19:26:16 10° S 19:31:56 67° ESE 19:37:38 10° NNE
Cosmos 1707 3.9 19:28:16 10° NNW 19:31:59 49° W 19:35:43 10° SSW
ISS -2.1 19:29:08 10° WSW 19:32:14 43° NW 19:35:22 10° NNE
Cosmos 1953 2.7 19:28:38 10° SSE 19:32:22 40° E 19:36:06 10° NNE
Helios 1B rocket 3.6 19:30:06 10° NE 19:33:20 22° E 19:36:33 10° SSE
Delta 168 3.6 19:30:30 10° WSW 19:34:09 47° S 19:39:19 10° E
COSMO-SKYMED 1 3.4 19:37:55 10° N 19:42:10 55° WNW 19:46:23 10° SSW
Meteor 1-24 Rocket 3.8 19:38:47 10° N 19:44:18 79° W 19:49:38 10° S
Cosmos 1470 4.1 19:41:34 10° SE 19:44:20 19° E 19:47:07 10° NE
BREEZE-M TANK 3.2 19:36:33 10° NW 19:45:40 62° NNE 19:48:39 12° ESE
In-Cosmos 22 4.4 19:42:32 10° N 19:48:10 52° E 19:53:41 10° SSE
ATLAS CENTAUR R/B 3.7 19:46:10 10° NW 19:49:25 25° WSW 19:52:31 10° SSW
ASC 2 Rocket 4.5 19:45:09 10° WSW 19:49:38 31° SSW 19:53:20 10° SE
Cosmos 1674 4.4 19:48:36 10° NE 19:50:53 15° ENE 19:51:28 15° E
Spot 2 Rocket 4.3 19:46:53 10° SE 19:51:14 30° ENE 19:55:34 10° N
Cosmos 1076 Rocket 3.4 19:49:31 10° N 19:53:52 75° E 19:58:12 10° S
ASTRO E2 2.7 19:49:57 10° W 19:54:01 88° SSW 19:57:04 17° ESE
Cosmos 1048 Rocket 4.0 19:49:23 10° S 19:54:38 62° ESE 19:59:49 10° NNE
Cosmos-2242 2.9 19:53:06 10° S 19:57:27 79° E 20:01:50 10° N
ATLAS 5 CENTAUR R/B 4.1 19:54:10 10° WSW 19:57:59 24° NW 20:02:01 10° N
Cosmos 1766 Rocket 3.4 19:55:06 10° N 19:59:26 70° E 20:03:44 10° SSE
Cosmos 1269 Rocket 4.0 19:54:54 10° SSW 20:00:10 85° ESE 20:05:28 10° NNE
SJ-6B 2.8 19:56:47 10° SSE 20:00:42 69° ENE 20:04:44 10° N
HJ-1C 4.2 19:58:45 12° SE 20:01:27 30° ENE 20:04:27 10° NNE
FREGAT/IRIS 2.7 19:59:43 10° SSE 20:02:44 52° ENE 20:05:45 10° N
Cosmos 1544 3.0 20:01:53 10° S 20:05:36 77° E 20:09:20 10° N
Cosmos 1174 4.1 20:01:00 10° SSW 20:06:18 71° ESE 20:10:30 10° NNE
Milstar 3 4.2 19:57:07 10° W 20:06:30 81° S 20:20:49 19° ESE
Cosmos 158 Rocket 4.1 20:01:57 10° S 20:06:33 43° ESE 20:11:09 10° NNE
Cosmos 1484 Rocket 4.2 20:03:45 10° S 20:07:21 41° W 20:11:02 10° NNW
SAR-Lupe-4 3.8 20:05:10 10° S 20:08:43 72° WSW 20:12:17 10° NNW
Cosmos 1346 3.4 20:06:05 10° N 20:08:53 39° E 20:09:55 28° SE
Cosmos 1634 Rocket 4.5 20:05:12 10° SSE 20:10:47 35° E 20:16:19 10° NNE
FUSE 4.4 20:06:23 10° WSW 20:11:34 50° S 20:14:47 22° ESE
METEOR-M 4.1 20:10:35 10° SSE 20:15:52 66° ENE 20:21:11 10° N
USA 215 3.3 20:12:54 10° NE 20:19:25 82° NW 20:25:57 10° SW
OAO 3 Rocket 3.5 20:18:00 10° WNW 20:22:39 54° NNE 20:24:38 31° ENE
Cosmos 1842 Rocket 3.4 20:22:01 10° S 20:26:18 77° E 20:30:39 10° N
SeaSat 1 3.8 20:33:02 22° SSE 20:33:02 22° SSE 20:35:17 10° S
Cosmos 1500 Rocket 3.7 20:27:11 10° N 20:31:32 51° E 20:32:52 37° SE
Helios 1A 2.8 20:30:32 16° SSE 20:33:53 78° ENE 20:38:06 10° N
FENGYUN 3A 3.8 20:32:29 31° SE 20:34:35 47° ENE 20:39:43 10° N
Spot 1 4.4 20:30:18 10° S 20:35:04 76° WSW 20:39:36 10° NNW
AVUM R/B 3.8 20:38:47 10° SSW 20:41:24 51° W 20:41:24 51° W
Meteor 1-29 4.4 20:42:41 10° N 20:45:58 39° WNW 20:49:13 10° SW
GPS 2-04 Rocket1 3.9 20:46:48 10° WNW 20:49:38 30° NNW 20:49:38 30° NNW
Atlas Centaur 2 4.3 20:46:02 10° W 20:53:20 32° SSW 20:58:19 17° SSE
Resurs 1-3 3.9 20:52:48 25° S 20:55:15 65° W 20:59:37 10° NNW
SEDSat Delta rocket 4.0 20:51:33 10° W 20:58:13 81° SSW 20:59:50 55° ESE
ALOS 2.1 20:58:47 73° S 20:59:14 88° W 21:03:55 10° NNW
ASTEX 1 3.7 20:55:26 10° N 21:00:17 65° W 21:05:05 10° SSW
Resurs 01 Rocket 3.0 20:59:25 10° SSW 21:03:33 38° W 21:07:42 10° NNW
Cosmos 2251 Rocket 3.4 20:59:01 10° SSW 21:04:14 84° WNW 21:09:29 10° NNE
Cosmos 1627 Rocket 4.4 20:58:11 10° N 21:04:21 62° E 21:04:23 62° E
Cosmos 1943 Rocket 4.0 21:00:56 10° N 21:02:44 17° NNE 21:02:44 17° NNE
Meteosat 1 Rocket2 3.5 21:02:24 10° W 21:09:24 77° S 21:09:24 77° S
Mugunghwa Rocket 4.3 21:03:32 10° WSW 21:10:13 58° SSE 21:10:52 56° SE
Cosmos 2369 Rocket 2.2 21:07:47 10° NNW 21:12:53 70° NNE 21:12:53 70° NNE
BREEZE-M DEB (TANK) 4.0 20:52:35 10° NW 21:16:10 82° SW 21:17:47 57° SSE
CENTAUR R/B 4.1 21:12:05 10° WSW 21:17:19 31° NW 21:23:04 10° N
Cosmos 839 Rocket 4.1 21:13:34 10° NNW 21:20:01 63° NNE 21:20:01 63° NNE
Cosmos 2279 Rocket 4.5 21:32:30 51° N 21:32:30 51° N 21:37:02 10° N
